Location: Bj�rn�ya
(74.5000°N, 19.0000°E)
Time: 09:10:43
(UTC+02:00)

Envisat - Pass Details

Date: 31 January 2022
Orbit: 764 x 765 km, 98.2° (Epoch: 20 May)

Event Time Altitude Azimuth Distance (km) Brightness Sun altitude
Rises 16:55:55 0° 208° (SSW) 3,233 7.0 -12.6°
Reaches altitude 10° 16:58:36 10° 222° (SW) 2,310 6.5 -12.8°
Maximum altitude 17:02:49 26° 278° (W) 1,498 5.3 -13.0°
Drops below altitude 10° 17:07:03 10° 334° (NNW) 2,318 5.6 -13.3°
Sets 17:09:45 0° 347° (NNW) 3,248 6.2 -13.5°
